Current Version              Previous Version:    01  02  03  04  05  06  07  08  09  10  11  12  13  14  15  16  17  18  19  20  21  22  23  24  25  26  27  28  29  30  
   31  32  33  34  35  36  37  38  39  40  41  42  43  44  45  46  47  48  49  50  51  52  53  54  55  56  57  58  59  60  

[Printable]
345
ASUS44 KLUB 250210
RWRTX
WEST TEXAS WEATHER ROUNDUP
NATIONAL WEATHER SERVICE LUBBOCK TX
900 PM CDT FRI OCT 24 2014

NOTE: "FAIR" INDICATES FEW OR NO CLOUDS BELOW 12,000 FEET WITH NO
SIGNIFICANT WEATHER AND/OR OBSTRUCTIONS TO VISIBILITY.

TXZ004-006>008-010-012-014-016-OKZ002-250300-
TEXAS PANHANDLE/OKLAHOMA PANHANDLE

CITY           SKY/WX    TMP DP  RH WIND       PRES   REMARKS
AMARILLO       CLEAR     68  45  43 S9        30.13R
BORGER         CLEAR     77  42  28 S9        30.09R
CANADIAN       CLEAR     66  57  71 CALM      30.05S
DALHART        CLEAR     67  36  31 SE5       30.14R
DUMAS            N/A     62  38  41 S9        30.12S
GUYMON         CLEAR     64  42  44 S7        30.07R
HEREFORD       CLEAR     64  47  53 S7        30.15R
PAMPA          CLEAR     63  48  57 S10       30.12R
PERRYTON       CLEAR     63  47  55 S8        30.08S
$$

TXZ026-029-035-045-048-250300-
SOUTHERN PANHANDLE/SOUTH PLAINS/ROLLING PLAINS

CITY           SKY/WX    TMP DP  RH WIND       PRES   REMARKS
CHILDRESS      CLEAR     74  55  51 S10       30.07R
SEMINOLE       CLEAR     66  52  60 S5        30.17S
LUBBOCK        CLEAR     68  51  54 S8        30.13R
PLAINVIEW      CLEAR     63  52  67 S6        30.13R
SNYDER         CLEAR     72  56  57 SE10      30.12F
$$

TXZ052-054-060>062-072-078-127-140-154-169-250300-
PERMIAN BASIN/CONCHO VALLEY/BIG COUNTRY/EDWARDS PLATEAU

CITY           SKY/WX    TMP DP  RH WIND       PRES   REMARKS
ABILENE        CLEAR     72  53  51 S8        30.11R
BIG SPRING     CLEAR     74  54  48 SE8       30.15S
BRADY          CLEAR     72  57  60 SE6       30.13R
BROWNWOOD      PTCLDY    72  57  60 MISG      30.12R
JUNCTION       CLEAR     73  56  54 CALM      30.14R
MIDLAND        CLEAR     73  46  38 S6        30.15R
ODESSA         CLEAR     74  47  38 CALM      30.16R
SAN ANGELO     CLEAR     72  53  51 S7        30.12R
SONORA         CLEAR     72  55  56 CALM      30.19S
SWEETWATER     CLEAR     72  55  54 S9        30.16S
WINK           CLEAR     71  52  50 SE7       30.12R
$$

TXZ055-058-074-075-080-082-250300-
FAR WEST/SOUTHWEST MOUNTAINS/TRANS PECOS

CITY           SKY/WX    TMP DP  RH WIND       PRES   REMARKS
ALPINE         CLEAR     64  49  58 S6        30.29R
DRYDEN           N/A     70  61  73 E7        30.13R
EL PASO        CLEAR     71  49  45 E6        30.18R
FORT STOCKTON  CLEAR     74  56  53 SE10      30.16R
GUADALUPE PASS CLEAR     67  43  41 SW8       30.30R
MARFA          CLEAR     64  52  63 SW3       30.28R
PECOS          CLEAR     69  55  60 E6        30.12R
PRESIDIO       FAIR      74  53  48 N7        30.13S
$$

TXZ014-016-019-021>030-083-250300
TEXAS TECH WEST TEXAS MESONET/TEXAS PANHANDLE/NORTHERN SOUTH PLAINS

CITY           SKY/WX    TMP DP  RH WIND       PRES   REMARKS
AMARILLO 9NNE    N/A     61  47  60 S8        30.11S
AMARILLO 7SSE    N/A     64  48  57 S6        30.14S
AMHERST 1NE      N/A     66  46  48 S8        30.15S
BOOTLEG 11WNW    N/A     60  44  55 S10       30.19S
CANADIAN 6E      N/A     67  57  71 E7        30.05R
CAPROCK CYN SP   N/A     69  54  58 SW9       30.10R
CHILDRESS 2NNE   N/A     74  54  50 S12       30.06R
CLARENDON 2WSW   N/A     64  50  60 S7        30.10R
CLAUDE 12SW      N/A     71  44  38 SE6       30.13R
DIMMITT 2NE      N/A     67  43  42 S8        30.16R
FLOYDADA 2NNE    N/A     66  55  66 S8        30.14R
FRIONA 2NE       N/A     62  42  48 S9        30.17R
GOODLETT 3W      N/A     72  56  56 S8        30.04S
HART 3N          N/A     62  49  61 S3        30.15R
HEREFORD 2NW     N/A     64  40  42 S5        30.15R
MCLEAN 1E        N/A     72  47  40 S5        30.08S
MEMPHIS 1NE      N/A     75  56  51 S5        30.06R
MULESHOE 2SSW    N/A     61  45  56 S8        30.16R
OLTON 6S         N/A     60  50  69 S9        30.14S
PALO DURO SP     N/A     70  43  38 S5        30.14S
PAMPA 2E         N/A     67  46  46 SW8       30.11S
PLAINVIEW 1S     N/A     66  53  61 S6        30.13R
SILVERTON 7ESE   N/A     69  53  57 S12       30.12S
TULIA 2ENE       N/A     65  50  58 S7        30.14R
TURKEY 2WSW      N/A     68  56  66 S8        30.08R
UMBARGER 3NNE    N/A     62  44  52 S8        30.15R
$$

TXZ033>036-039>041-045>048-250300
TEXAS TECH WEST TEXAS MESONET/SOUTH PLAINS

CITY           SKY/WX    TMP DP  RH WIND       PRES   REMARKS
AIKEN 3WSW       N/A     64  54  71 S10       30.15R
ANDREWS 2NE      N/A     69  49  49 S6        30.17R
ANTON 6SSW       N/A     62  52  71 SE3       30.14S
BROWNFIELD 2S    N/A     65  50  59 S9        30.15S
DENVR CTY 7WNW   N/A     65  50  57 S8        30.17R
GAIL 2ESE        N/A     69  54  58 S7        30.11S
LAMESA 2SE       N/A     61  52  71 S5        30.15S
LEVELLAND 4S     N/A     61  49  65 S8        30.16R
LUBBOCK 3WNW     N/A     68  49  51 S6        30.14S
MORTON 1ENE      N/A     68  46  46 SW9       30.16S
ODONNELL 1N      N/A     70  49  47 S7        30.14S
PLAINS 3N        N/A     65  46  49 SW8       30.17S
RALLS 1SE        N/A     64  54  71 S7        30.14S
REESE CENTER     N/A     64  53  66 S9        30.14S
SEMINOLE 2NNE    N/A     65  53  65 S7        30.16S
SLATON 2NE       N/A     65  54  66 S10       30.13S
SNYDER 3E        N/A     70  56  61 SE8       30.11S
SUNDOWN 8SW      N/A     62  46  57 SW10      30.16S
TAHOKA 3NNE      N/A     65  52  61 S8        30.14S
WOLFFORTH 6SSW   N/A     67  52  57 S6        30.15S
$$

TXZ031-032-036>038-042>044-250300-
TEXAS TECH WEST TEXAS MESONET/ROLLING PLAINS

CITY           SKY/WX    TMP DP  RH WIND       PRES   REMARKS
ASPERMONT 3NE    N/A     70  57  62 SE7       30.07S
FLUVANNA 3WNW    N/A     67  55  65 SE8       30.12S
GUTHRIE 10WSW    N/A     70  57  63 S8        30.07S
HASKELL 1NW      N/A     76  52  42 S8        30.07S
JAYTON 1SSE      N/A     71  57  60 S6        30.08S
KNOX CITY 3NW    N/A     68  56  65 S7        30.06S
LK A HENRY 1NW   N/A     71  54  55 S6        30.09S
NORTHFIELD 1S    N/A     74  58  56 S9        30.07R
ODELL 4ENE       N/A     75  57  53 S9        30.04S
PADUCAH 10SW     N/A     67  57  68 S8        30.07R
POST 1NE         N/A     73  52  46 S6        30.11S
RRING SPRGS 3N   N/A     68  58  71 S6        30.10S
SEYMOUR 3NW      N/A     74  55  51 SE7       30.05R
SPUR 1W          N/A     67  56  69 S2        30.09S
WEINERT 2NNE     N/A     73  55  53 S8        30.06S
WHITE RVR 6NE    N/A     70  56  59 S5        30.11S
$$

TXZ052-054-060>062-072-078-127-140-154-169-250300-
TEXAS TECH WEST TEXAS MESONET/PERMIAN BASIN/
CONCHO VALLEY/BIG COUNTRY/EDWARDS PLATEAU

CITY           SKY/WX    TMP DP  RH WIND       PRES   REMARKS
COYANOSA 2N      N/A     69  53  55 E7        30.13R
JUNCTION 1SSW    N/A     67  56  66 S2        30.15R
MERTZON 3NNE     N/A     69  55  61 S5        30.15R
SAN ANGELO 7NW   N/A     71  50  46 S3        30.12S
STRLNG CT 4WSW   N/A     76  54  45 S10       30.13S
ST LAWRNCE 5SW   N/A     69  45  41 S8        30.15R
SWEETWATR 11SW   N/A     67  54  63 SE7       30.14S
WALL 1E          N/A     69  51  53 S7        30.12S
$$

TXZ055-058-074-075-080-082-250300-
TEXAS TECH WEST TEXAS MESONET/FAR WEST/SOUTHWEST MOUNTAINS/TRANS PECOS

CITY           SKY/WX    TMP DP  RH WIND       PRES   REMARKS
PRSMN GAP BBNP   N/A     76  57  51 N10       30.15R
GUADLPE MTN NP   N/A     65  42  42 W8        30.30R
$$